User: anonymous   Login
Location: Unspecified
(0.0000°N, 0.0000°E)
Time: 06:58:41
(UTC+00:00)
Language:

Oscar 18 - Orbit

View from above orbital plane
View from above orbital plane
View from above satellite
View from above satellite

Ground track
Ground track

The orbit data is extracted from the following two-line orbital elements,

1 20441U 90005F   17202.90480248 -.00000019 +00000-0 +92608-5 0  9993
2 20441 098.5926 140.2176 0012513 057.3477 346.5978 14.32733314436239
Epoch (UTC): 21 July 2017 21:42:54
Eccentricity: 0.0012513
inclination: 98.5926°
perigee height: 773 km
apogee height: 791 km
right ascension of ascending node: 140.2176°
argument of perigee: 57.3477°
revolutions per day: 14.32733314
mean anomaly at epoch: 346.5978°
orbit number at epoch: 43623

The dashed part of the orbit path shows where the satellite is in the earth's shadow,  

DLR